User: anonymous   Login
Location: Unspecified
(0.0000°N, 0.0000°E)
Time: 20:05:40
(UTC+00:00)
Language:

TIANWANG 1B (TW-1B) - Orbit

View from above orbital plane
View from above orbital plane
View from above satellite
View from above satellite

Ground track
Ground track

The orbit data is extracted from the following two-line orbital elements,

1 40927U 15051C   19341.40512162  .00010232  00000-0  13971-3 0  9995
2 40927  97.1177  26.5408 0009197 102.5373 267.9693 15.57614707236712
Epoch (UTC): 07 December 2019 09:43:22
Eccentricity: 0.0009197
inclination: 97.1177°
perigee height: 388 km
apogee height: 401 km
right ascension of ascending node: 26.5408°
argument of perigee: 102.5373°
revolutions per day: 15.57614707
mean anomaly at epoch: 267.9693°
orbit number at epoch: 23671

The dashed part of the orbit path shows where the satellite is in the earth's shadow,  

DLR